OpenBCM V1.13 (Linux)

Packet Radio Mailbox

DB0FHN

[JN59NK Nuernberg]

 Login: GUEST





  
LU9DCE > KEP      12.02.19 21:33l 247 Lines 12135 Bytes #999 (0) @ WW
BID : 18522_LU9DCE
Read: DF7EAV DK3UZ GUEST
Subj: TLE 12 02
Path: DB0FHN<DB0BLO<DB0ERF<DB0RES<IR2UBX<IZ3LSV<IK6ZDE<VE2PKT<LU3DVN<LU9DCE
Sent: 190212/1915Z 18522@LU9DCE.TOR.BA.ARG.SOAM BPQ6.0.18

            __    _  _  ___  ____   ___  ____    ____  ____  ____
           (  )  / )( \/ _ \(    \ / __)(  __)  (  _ \(  _ \/ ___)
           / (_/\) \/ (\__  )) D (( (__  ) _)    ) _ ( ) _ (\___ \
           \____/\____/(___/(____/ \___)(____)  (____/(____/(____/
               ESTACION DE PACKET RADIO - BUENOS AIRES (GF05OM)
                   BOLETINES INFORMATIVOS PROGRAMADOS (BIP)
                          CASTILLOEDUARDO@ZOHO.COM

+----------------------------------------------------------------------------+
OSCAR 7
1  7530U 74089B   19043.14084705 -.00000019  00000-0  16304-3 0  9997
2  7530 101.7266  12.1897 0011859 231.0211 196.2443 12.53636646 24661
OSCAR 11 (UoSAT 2)
1 14781U 84021B   19043.53334591  .00000061  00000-0  13678-4 0  9992
2 14781  97.6246  74.1274 0008943  23.8016 336.3610 14.83062993880065
OSCAR 19 (LUSAT)
1 20442U 90005G   19043.07212495 -.00000008  00000-0  13203-4 0  9995
2 20442  98.6363 345.3758 0012108 157.7150 202.4562 14.32916880518245
EYESAT A
1 22825U 93061C   19042.92977563  .00000004  00000-0  19390-4 0  9992
2 22825  98.8923  28.7470 0008670  15.3202 344.8240 14.30050940323832
ITAMSAT
1 22826U 93061D   19043.45059596 -.00000002  00000-0  17184-4 0  9997
2 22826  98.8864  29.2863 0008974   2.7417 357.3812 14.30383851324109
RADIO ROSTO
1 23439U 94085A   19043.24359420 -.00000032  00000-0  28444-3 0  9994
2 23439  64.8192 320.6121 0149040 137.4813 316.1061 11.27567602993795
JAS 2
1 24278U 96046B   19043.47486641 -.00000024  00000-0  11859-4 0  9990
2 24278  98.5176 214.1242 0349941 207.2677 150.9706 13.53088881110733
TECHSAT 1B
1 25397U 98043D   19043.46495464 -.00000003  00000-0  17837-4 0  9993
2 25397  98.6769 345.2248 0002228  63.7210 296.4197 14.23660042 69915
ISS (ZARYA)
1 25544U 98067A   19043.56081398  .00001243  00000-0  26804-4 0  9991
2 25544  51.6411 260.9684 0005360  21.6668  78.0045 15.53256690155892
PCSAT
1 26931U 01043C   19042.95527745 -.00000041 +00000-0 +15908-4 0  9992
2 26931 067.0530 330.7185 0005407 269.1013 090.9468 14.30531805906774
SAUDISAT 1C
1 27607U 02058C   19043.55194291 -.00000028  00000-0  16928-4 0  9991
2 27607  64.5544  75.2448 0081917 280.4714  78.7165 14.75519262868428
CUTE-1
1 27844U 03031E   19043.01431969  .00000038  00000-0  36676-4 0  9995
2 27844  98.6865  53.1074 0010498  42.7532 317.4461 14.22159455810287
CUBESAT XI 4
1 27848U 03031J   19042.97051698 +.00000025 +00000-0 +31170-4 0  9990
2 27848 098.6946 053.5343 0010544 053.1586 307.0557 14.21757169810108
MOZHAYETS 4
1 27939U 03042A   19043.43560324  .00000082  00000-0  23170-4 0  9990
2 27939  98.0192 181.8687 0014231 106.0695 254.2090 14.66752910822036
CUBESAT XI 5
1 28895U 05043F   19042.83108821  .00000098  00000-0  27610-4 0  9998
2 28895  97.9377 190.0640 0017443  36.3721 323.8664 14.63629414708936
CUTE-1.7+APD II
1 32785U 08021C   19043.15241303  .00000188  00000-0  25950-4 0  9994
2 32785  97.5478  48.8555 0012235 328.5664  31.4821 14.88248361584864
DELFI C3
1 32789U 08021G   19043.17769325  .00000774  00000-0  56225-4 0  9999
2 32789  97.4821  96.5682 0012127 191.2422 168.8537 15.06644095587910
SEEDS
1 32791U 08021J   19043.51684644  .00000340  00000-0  39960-4 0  9996
2 32791  97.5301  55.0197 0012073 301.7957  58.2085 14.90732052585314
YUBELEINY
1 32953U 08025A   19043.52614853  .00000020  00000-0  75656-4 0  9993
2 32953  82.4994 223.2018 0019630  46.7423 313.5290 12.43087513486637
PRISM (HITOMI)
1 33493U 09002B   19040.22106459 -.00000064  00000-0  27954-7 0  9991
2 33493  98.1216 316.2721 0014333 254.3196 105.6442 14.96497907545795
KKS-1 (KISEKI)
1 33499U 09002H   19043.53369511  .00000068  00000-0  18097-4 0  9992
2 33499  98.3543 238.1587 0008071 245.1105 114.9264 14.75405690540625
SWISSCUBE
1 35932U 09051B   19043.44705940  .00000089  00000-0  31249-4 0  9997
2 35932  98.5711 205.8294 0007626 184.8902 175.2221 14.56243149498402
BEESAT
1 35933U 09051C   19042.90834211 +.00000081 +00000-0 +29166-4 0  9999
2 35933 098.5744 206.9679 0005530 197.2687 162.8322 14.56337389498356
ITUPSAT 1
1 35935U 09051E   19043.16815176  .00000073  00000-0  27929-4 0  9995
2 35935  98.5856 207.4803 0007896 195.9361 164.1588 14.55503347498232
XIWANG-1 (HOPE-1)
1 36122U 09072B   19042.73183139 -.00000052 +00000-0 -25545-4 0  9997
2 36122 100.0714 051.0862 0006872 280.6457 079.3880 13.16348205440170
TISAT 1
1 36799U 10035E   19043.45271538  .00000198  00000-0  26081-4 0  9994
2 36799  98.1355 191.5697 0013310 136.3993 223.8278 14.91001632465955
JUGNU
1 37839U 11058B   19043.22972219  .00000297  00000-0  16571-4 0  9998
2 37839  19.9626  21.6531 0018904  13.7594  67.0946 14.12641398379352
SRMSAT
1 37841U 11058D   19042.47228935 +.00000282 +00000-0 +97773-5 0  9994
2 37841 019.9726 080.3869 0011645 238.7973 261.0162 14.10624226378610
M-CUBED/EXP-1 PRIME
1 37855U 11061F   19043.17460859  .00000738  00000-0  45010-4 0  9996
2 37855 101.7274 233.7313 0174500  91.6924 270.4283 15.05130777397744
HORYU 2
1 38340U 12025D   19043.05056911  .00000139  00000-0  28459-4 0  9997
2 38340  98.3453  77.7341 0011995 162.0796 198.0837 14.75665728362487
STRAND 1
1 39090U 13009E   19042.54220685  .00000007  00000-0  17621-4 0  9990
2 39090  98.4994 250.5330 0008326 311.7931  48.2542 14.35070196312151
SOMP
1 39134U 13015E   19043.49474367  .00001089  00000-0  59854-4 0  9994
2 39134  64.8629  69.1816 0018739 321.1576  38.8203 15.19805360321414
BEESAT 3
1 39135U 13015F   19042.53656429  .00000711  00000-0  45431-4 0  9997
2 39135  64.8703  88.8332 0010171 273.1145  86.8817 15.17196846320951
BEESAT 2
1 39136U 13015G   19042.52653953  .00000646  00000-0  42816-4 0  9997
2 39136  64.8689  92.3070 0010462 288.1002  71.8984 15.16629765320886
CUBEBUG 1
1 39153U 13018D   19043.51617511  .00000168  00000-0  28963-4 0  9995
2 39153  97.9764 142.3957 0015752 245.2919 114.6654 14.80510900313145
ZACUBE
1 39417U 13066B   19043.50369371  .00000197  00000-0  31072-4 0  9995
2 39417  97.5702  64.0490 0060502  87.8560 272.9580 14.81052983282361
TRITON 1
1 39427U 13066M   19043.47699289  .00000123  00000-0  27720-4 0  9990
2 39427  97.6630  28.7583 0113153 209.0256 150.4629 14.67779059279829
GOMX 1
1 39430U 13066Q   19043.45218266  .00000141  00000-0  34985-4 0  9995
2 39430  97.7292   8.4439 0150082 292.7074  65.8316 14.59196059278197
HUMSAT D
1 39433U 13066T   19043.13910415  .00000352  00000-0  39814-4 0  9998
2 39433  97.5726  95.6981 0030799   5.8454 354.3118 14.92079378284203
CUBEBUG 2
1 39440U 13066AA  19042.96464281  .00000169  00000-0  30359-4 0  9992
2 39440  97.6001  48.9066 0081392 135.9483 224.8251 14.75790970281288
FUNCUBE 1
1 39444U 13066AE  19043.03316185  .00000232  00000-0  34771-4 0  9997
2 39444  97.5695  65.4189 0059628  83.9439 276.8565 14.81858613281179
UWE-3
1 39446U 13066AG  19042.91512195 +.00000179 +00000-0 +30331-4 0  9992
2 39446 097.5838 055.7021 0071490 113.3240 247.5515 14.78325666279941
SPROUT
1 39770U 14029E   19043.34847743  .00000639  00000-0  77180-4 0  9994
2 39770  97.8788 147.5455 0009846 135.8293 224.3690 14.87172742256051
UNISAT 6
1 40012U 14033C   19043.20386210  .00000118  00000-0  24997-4 0  9992
2 40012  97.7760 275.1161 0059134 144.7130 215.8015 14.73924722250055
DUCHIFAT 1
1 40021U 14033M   19042.73644116  .00000425  00000-0  49290-4 0  9995
2 40021  97.9218 326.9428 0014228 106.6285 253.6496 14.90518807252630
QB50P1
1 40025U 14033R   19042.81759138  .00000178  00000-0  24986-4 0  9999
2 40025  97.9068 322.7105 0013738 114.1159 246.1496 14.88863824252447
CHUBUSAT 1
1 40300U 14070C   19043.28869647  .00000612  00000-0  29771-4 0  9995
2 40300  97.3398 120.6032 0020665 135.9093 264.9115 15.21906413236798
NUDT-PHONESAT
1 40900U 15049B   19043.39286007  .00001818  00000-0  81985-4 0  9997
2 40900  97.4397  53.9982 0011390 267.4114 201.3414 15.22255903188443
ZDPS 2A
1 40901U 15049C   19043.48330567  .00000916  00000-0  49010-4 0  9990
2 40901  97.4602  51.1493 0011967 285.1622 200.7577 15.17499405188096
ZDPS 2B
1 40902U 15049D   19043.49000466  .00000675  00000-0  37239-4 0  9996
2 40902  97.4527  48.8209 0012136 282.3545 199.6120 15.17275250188071
XW-2A
1 40903U 15049E   19043.40476756  .00001722  00000-0  43262-4 0  9994
2 40903  97.3557  85.3628 0012033 239.8874 245.4996 15.41353369190791
KAITUO 1A
1 40904U 15049F   19043.48497543  .00000599  00000-0  35342-4 0  9991
2 40904  97.4647  47.6813 0013261 288.8354 226.1817 15.15244422187885
OBJECT G
1 40905U 15049G   19043.47052094  .00000610  00000-0  36940-4 0  9998
2 40905  97.4667  45.3784 0014249 282.7099 200.1326 15.14181017187770
XW-2C
1 40906U 15049H   19043.36893662  .00000351  00000-0  22002-4 0  9997
2 40906  97.4657  47.5721 0013403 280.1399 187.1689 15.15501432187865
XW-2D
1 40907U 15049J   19043.36157869  .00000450  00000-0  27107-4 0  9991
2 40907  97.4630  47.2425 0012659 277.0633 190.0124 15.15676321187871
LILACSAT 2
1 40908U 15049K   19043.41136257  .00000571  00000-0  35277-4 0  9997
2 40908  97.4757  46.3288 0014346 281.2884 215.6456 15.13701127187704
XW-2F
1 40910U 15049M   19043.30856002  .00000742  00000-0  40885-4 0  9996
2 40910  97.4611  48.9419 0013337 270.8711 204.4117 15.17022051187854
XW-2B
1 40911U 15049N   19043.38839245  .00000648  00000-0  37587-4 0  9995
2 40911  97.4654  47.8866 0012495 276.7818 189.0264 15.15613398187773
KAITUO 1B
1 40912U 15049P   19043.39669529  .00001080  00000-0  54342-4 0  9992
2 40912  97.4507  52.4077 0013474 252.3745 213.4051 15.19301103188133
TIANWANG 1C (TW-1C)
1 40926U 15051B   19043.41151492  .00008842  00000-0  14299-3 0  9997
2 40926  97.1551  89.8642 0010374 113.0668  14.3714 15.53011591190548
